Location: الشقيري
(17.1356°N, 42.8272°E)
Time: 23:20:12
(UTC+00:00)

Envisat - Visible Passes

Search period start: 15 November 2019 00:00
Search period end: 25 November 2019 00:00
Orbit: 764 x 766 km, 98.1° (Epoch: 14 November)

Date Brightness Start Highest point End Pass type
(mag) Time Alt. Az. Time Alt. Az. Time Alt. Az.
15 Nov 5.4 16:18:25 10° SSW 16:22:22 23° W 16:26:19 10° NW visible
16 Nov 3.5 15:40:35 10° S 15:45:36 63° WSW 15:50:37 10° NNW visible
17 Nov 3.2 15:04:05 10° SSE 15:08:56 47° ENE 15:13:46 10° N visible
17 Nov 6.2 16:46:44 10° WSW 16:47:55 11° W 16:49:05 10° W visible
18 Nov 4.9 16:06:40 10° SSW 16:11:05 30° W 16:15:31 10° NW visible
19 Nov 6.0 02:50:31 10° NE 02:53:54 18° E 02:57:18 10° SE visible
19 Nov 3.0 15:29:16 10° S 15:34:20 85° WSW 15:39:25 10° NNW visible
20 Nov 3.6 14:53:08 10° SE 14:57:42 35° ENE 15:02:16 10° N visible
20 Nov 5.9 16:33:46 10° SW 16:36:37 15° W 16:39:28 10° WNW visible
21 Nov 4.3 15:55:03 10° S 15:59:48 41° W 16:04:34 10° NNW visible
22 Nov 6.3 02:40:17 10° ENE 02:42:37 13° E 02:44:57 10° SE visible
22 Nov 2.9 15:18:03 10° SSE 15:23:05 72° ENE 15:28:08 10° N visible
23 Nov 5.5 16:21:38 10° SW 16:25:19 20° W 16:29:01 10° NW visible
24 Nov 3.7 15:43:35 10° S 15:48:32 56° W 15:53:30 10° NNW visible
